Time,TemperatureF,DewpointF,PressureIn,WindDirection,WindDirectionDegrees,WindSpeedMPH,WindSpeedGustMPH,Humidity,HourlyPrecipIn,Conditions,Clouds,dailyrainin,SolarRadiationWatts/m^2,SoftwareType,DateUTC
2013-01-26 00:00:00,16.2,7.8,30.00,NW,317,0.0,2.0,69,0.00,,OVC021,0.00,0.00,VWS V14.01,2013-01-26 05:00:00,
2013-01-26 00:05:00,16.2,8.1,30.00,NW,317,1.0,3.0,70,0.00,,OVC021,0.00,0.00,VWS V14.01,2013-01-26 05:05:00,
2013-01-26 00:10:00,16.0,8.3,30.00,NW,318,1.0,2.0,71,0.00,,OVC021,0.00,0.00,VWS V14.01,2013-01-26 05:10:00,
2013-01-26 00:15:00,15.9,8.5,29.99,NW,317,0.0,2.0,72,0.00,,OVC021,0.00,0.00,VWS V14.01,2013-01-26 05:15:00,
2013-01-26 00:20:00,15.8,8.7,29.99,NW,317,0.0,1.0,73,0.00,,OVC021,0.00,0.00,VWS V14.01,2013-01-26 05:20:00,
2013-01-26 00:25:00,15.7,8.9,29.99,NW,318,1.0,2.0,74,0.00,,OVC021,0.00,0.00,VWS V14.01,2013-01-26 05:25:00,
2013-01-26 00:30:00,15.6,9.1,29.99,NW,318,0.0,1.0,75,0.00,,OVC021,0.00,0.00,VWS V14.01,2013-01-26 05:30:00,
2013-01-26 00:35:00,15.5,9.0,29.99,NW,317,0.0,2.0,75,0.00,,OVC021,0.00,0.00,VWS V14.01,2013-01-26 05:35:00,
2013-01-26 00:40:00,15.5,9.0,29.99,NW,318,0.0,2.0,75,0.00,,OVC021,0.00,0.00,VWS V14.01,2013-01-26 05:40:00,
2013-01-26 00:45:00,15.5,9.0,29.99,NW,318,2.0,2.0,75,0.00,,OVC021,0.00,0.00,VWS V14.01,2013-01-26 05:45:00,
2013-01-26 00:50:00,15.5,9.3,29.99,NW,318,2.0,3.0,76,0.00,,OVC021,0.00,0.00,VWS V14.01,2013-01-26 05:50:00,
2013-01-26 00:55:00,15.4,9.2,29.99,NW,317,1.0,4.0,76,0.00,,OVC021,0.00,0.00,VWS V14.01,2013-01-26 05:55:00,
2013-01-26 01:00:00,15.4,9.5,29.99,NW,317,2.0,4.0,77,0.00,,OVC021,0.00,0.00,VWS V14.01,2013-01-26 06:00:00,
2013-01-26 01:05:00,15.3,9.1,29.99,North,355,3.0,6.0,76,0.00,,OVC021,0.00,0.00,VWS V14.01,2013-01-26 06:05:00,
2013-01-26 01:10:00,15.3,9.1,29.99,North,5,1.0,6.0,76,0.00,,OVC021,0.00,0.00,VWS V14.01,2013-01-26 06:10:00,
2013-01-26 01:15:00,15.2,9.0,29.99,NNE,26,2.0,4.0,76,0.00,,OVC021,0.00,0.00,VWS V14.01,2013-01-26 06:15:00,
2013-01-26 01:20:00,15.2,9.3,29.99,NNW,346,4.0,4.0,77,0.00,,OVC021,0.00,0.00,VWS V14.01,2013-01-26 06:20:00,
2013-01-26 01:25:00,15.1,9.2,29.98,North,9,2.0,5.0,77,0.00,,OVC021,0.00,0.00,VWS V14.01,2013-01-26 06:25:00,
2013-01-26 01:30:00,15.0,9.1,29.98,North,9,5.0,6.0,77,0.00,,OVC021,0.00,0.00,VWS V14.01,2013-01-26 06:30:00,
2013-01-26 01:35:00,14.8,8.9,29.98,North,11,1.0,6.0,77,0.00,,OVC021,0.00,0.00,VWS V14.01,2013-01-26 06:35:00,
2013-01-26 01:40:00,14.6,9.0,29.98,North,355,3.0,5.0,78,0.00,,OVC021,0.00,0.00,VWS V14.01,2013-01-26 06:40:00,
2013-01-26 01:45:00,14.5,8.9,29.98,NNE,15,5.0,6.0,78,0.00,,OVC021,0.00,0.00,VWS V14.01,2013-01-26 06:45:00,
2013-01-26 01:50:00,14.4,9.1,29.98,North,355,1.0,5.0,79,0.00,,OVC021,0.00,0.00,VWS V14.01,2013-01-26 06:50:00,
2013-01-26 01:55:00,14.3,9.0,29.98,North,355,0.0,3.0,79,0.00,,OVC021,0.00,0.00,VWS V14.01,2013-01-26 06:55:00,
2013-01-26 02:00:00,14.2,9.2,29.98,North,360,2.0,3.0,80,0.00,,OVC021,0.00,0.00,VWS V14.01,2013-01-26 07:00:00,
2013-01-26 02:05:00,14.1,9.1,29.98,North,360,3.0,3.0,80,0.00,,OVC021,0.00,0.00,VWS V14.01,2013-01-26 07:05:00,
2013-01-26 02:10:00,14.0,9.0,29.97,NW,326,2.0,5.0,80,0.00,,OVC021,0.00,0.00,VWS V14.01,2013-01-26 07:10:00,
2013-01-26 02:15:00,13.9,8.9,29.97,NNW,346,1.0,5.0,80,0.00,,OVC021,0.00,0.00,VWS V14.01,2013-01-26 07:15:00,
2013-01-26 02:20:00,13.8,8.8,29.97,NNW,347,2.0,3.0,80,0.00,,OVC021,0.00,0.00,VWS V14.01,2013-01-26 07:20:00,
2013-01-26 02:25:00,13.7,8.7,29.96,North,349,3.0,4.0,80,0.00,,OVC021,0.00,0.00,VWS V14.01,2013-01-26 07:25:00,
2013-01-26 02:30:00,13.7,9.0,29.96,North,349,0.0,3.0,81,0.00,,OVC021,0.00,0.00,VWS V14.01,2013-01-26 07:30:00,
2013-01-26 02:35:00,13.6,8.9,29.96,North,5,2.0,5.0,81,0.00,,OVC021,0.00,0.00,VWS V14.01,2013-01-26 07:35:00,
2013-01-26 02:40:00,13.5,8.8,29.96,North,5,0.0,2.0,81,0.00,,OVC021,0.00,0.00,VWS V14.01,2013-01-26 07:40:00,
2013-01-26 02:45:00,13.4,8.7,29.96,North,9,1.0,1.0,81,0.00,,OVC021,0.00,0.00,VWS V14.01,2013-01-26 07:45:00,
2013-01-26 02:50:00,13.3,8.6,29.96,North,5,0.0,2.0,81,0.00,,OVC021,0.00,0.00,VWS V14.01,2013-01-26 07:50:00,
2013-01-26 02:55:00,13.2,8.5,29.96,NNE,12,1.0,3.0,81,0.00,,OVC021,0.00,0.00,VWS V14.01,2013-01-26 07:55:00,
2013-01-26 03:00:00,13.1,8.4,29.96,North,11,0.0,1.0,81,0.00,,OVC021,0.00,0.00,VWS V14.01,2013-01-26 08:00:00,
2013-01-26 03:05:00,13.0,8.3,29.96,NNE,12,0.0,1.0,81,0.00,,OVC021,0.00,0.00,VWS V14.01,2013-01-26 08:05:00,
2013-01-26 03:10:00,12.9,8.2,29.95,North,11,1.0,2.0,81,0.00,,OVC021,0.00,0.00,VWS V14.01,2013-01-26 08:10:00,
2013-01-26 03:15:00,12.8,8.4,29.95,North,11,0.0,2.0,82,0.00,,OVC021,0.00,0.00,VWS V14.01,2013-01-26 08:15:00,
2013-01-26 03:20:00,12.6,7.9,29.95,North,11,0.0,1.0,81,0.00,,OVC021,0.00,0.00,VWS V14.01,2013-01-26 08:20:00,
2013-01-26 03:25:00,12.3,7.9,29.95,North,11,0.0,2.0,82,0.00,,OVC021,0.00,0.00,VWS V14.01,2013-01-26 08:25:00,
2013-01-26 03:30:00,12.1,7.7,29.95,North,11,2.0,2.0,82,0.00,,OVC021,0.00,0.00,VWS V14.01,2013-01-26 08:30:00,
2013-01-26 03:35:00,11.9,7.7,29.95,North,11,2.0,2.0,83,0.00,,OVC021,0.00,0.00,VWS V14.01,2013-01-26 08:35:00,
2013-01-26 03:40:00,11.6,7.4,29.95,North,11,2.0,2.0,83,0.00,,OVC021,0.00,0.00,VWS V14.01,2013-01-26 08:40:00,
2013-01-26 03:45:00,11.6,7.4,29.95,North,11,3.0,3.0,83,0.00,,OVC021,0.00,0.00,VWS V14.01,2013-01-26 08:45:00,
2013-01-26 03:50:00,11.7,7.6,29.95,NNW,334,2.0,4.0,83,0.00,,OVC021,0.00,0.00,VWS V14.01,2013-01-26 08:50:00,
2013-01-26 03:55:00,11.7,7.6,29.95,NNW,333,1.0,3.0,83,0.00,,OVC021,0.00,0.00,VWS V14.01,2013-01-26 08:55:00,
2013-01-26 04:00:00,11.6,7.4,29.95,NNW,331,1.0,3.0,83,0.00,,OVC021,0.00,0.00,VWS V14.01,2013-01-26 09:00:00,
2013-01-26 04:05:00,11.5,7.3,29.95,NNW,331,1.0,3.0,83,0.00,,OVC021,0.00,0.00,VWS V14.01,2013-01-26 09:05:00,
2013-01-26 04:10:00,11.3,7.2,29.95,NNW,331,2.0,3.0,83,0.00,,OVC021,0.00,0.00,VWS V14.01,2013-01-26 09:10:00,
2013-01-26 04:15:00,11.2,7.1,29.94,NNW,331,2.0,3.0,83,0.00,,OVC021,0.00,0.00,VWS V14.01,2013-01-26 09:15:00,
2013-01-26 04:20:00,11.1,7.0,29.95,NNW,331,2.0,2.0,83,0.00,,OVC021,0.00,0.00,VWS V14.01,2013-01-26 09:20:00,
2013-01-26 04:25:00,11.1,7.0,29.95,WNW,303,3.0,5.0,83,0.00,,OVC021,0.00,0.00,VWS V14.01,2013-01-26 09:25:00,
2013-01-26 04:30:00,11.2,7.1,29.95,NW,323,1.0,6.0,83,0.00,,OVC021,0.00,0.00,VWS V14.01,2013-01-26 09:30:00,
2013-01-26 04:35:00,11.2,7.1,29.95,WNW,301,4.0,4.0,83,0.00,,OVC021,0.00,0.00,VWS V14.01,2013-01-26 09:35:00,
2013-01-26 04:40:00,11.3,7.2,29.95,NW,309,2.0,5.0,83,0.00,,OVC021,0.00,0.00,VWS V14.01,2013-01-26 09:40:00,
2013-01-26 04:45:00,11.4,7.0,29.94,NW,319,2.0,5.0,82,0.00,,OVC021,0.00,0.00,VWS V14.01,2013-01-26 09:45:00,
2013-01-26 04:50:00,11.4,7.0,29.94,NW,319,3.0,5.0,82,0.00,,OVC021,0.00,0.00,VWS V14.01,2013-01-26 09:50:00,
2013-01-26 04:55:00,11.4,7.0,29.95,WNW,300,6.0,6.0,82,0.00,,OVC021,0.00,0.00,VWS V14.01,2013-01-26 09:55:00,
2013-01-26 05:00:00,11.5,6.8,29.95,NNW,344,6.0,8.0,81,0.00,,OVC021,0.00,0.00,VWS V14.01,2013-01-26 10:00:00,
2013-01-26 05:05:00,11.5,6.8,29.95,NW,311,4.0,7.0,81,0.00,,OVC021,0.00,0.00,VWS V14.01,2013-01-26 10:05:00,
2013-01-26 05:10:00,11.5,6.5,29.95,NW,317,3.0,5.0,80,0.00,,OVC021,0.00,0.00,VWS V14.01,2013-01-26 10:10:00,
2013-01-26 05:15:00,11.6,6.6,29.95,NW,307,2.0,7.0,80,0.00,,OVC021,0.00,0.00,VWS V14.01,2013-01-26 10:15:00,
2013-01-26 05:20:00,11.4,6.4,29.96,NW,306,4.0,6.0,80,0.00,,OVC021,0.00,0.00,VWS V14.01,2013-01-26 10:20:00,
2013-01-26 05:25:00,11.4,6.4,29.95,NW,326,0.0,8.0,80,0.00,,OVC021,0.00,0.00,VWS V14.01,2013-01-26 10:25:00,
2013-01-26 05:30:00,11.4,6.2,29.96,NNW,340,4.0,6.0,79,0.00,,OVC021,0.00,0.00,VWS V14.01,2013-01-26 10:30:00,
2013-01-26 05:35:00,11.3,6.1,29.96,NW,322,3.0,6.0,79,0.00,,OVC021,0.00,0.00,VWS V14.01,2013-01-26 10:35:00,
2013-01-26 05:40:00,11.3,6.1,29.96,NW,321,3.0,6.0,79,0.00,,OVC021,0.00,0.00,VWS V14.01,2013-01-26 10:40:00,
2013-01-26 05:45:00,11.3,6.1,29.96,NW,316,3.0,7.0,79,0.00,,OVC021,0.00,0.00,VWS V14.01,2013-01-26 10:45:00,
2013-01-26 05:50:00,11.2,6.0,29.96,NW,304,4.0,8.0,79,0.00,,OVC021,0.00,0.00,VWS V14.01,2013-01-26 10:50:00,
2013-01-26 05:55:00,11.2,6.0,29.96,WNW,302,5.0,8.0,79,0.00,,OVC021,0.00,0.00,VWS V14.01,2013-01-26 10:55:00,
2013-01-26 06:00:00,11.1,5.9,29.96,NNW,333,4.0,5.0,79,0.00,,OVC021,0.00,0.00,VWS V14.01,2013-01-26 11:00:00,
2013-01-26 06:05:00,11.0,5.8,29.96,NNW,334,4.0,6.0,79,0.00,,OVC021,0.00,0.00,VWS V14.01,2013-01-26 11:05:00,
2013-01-26 06:10:00,10.9,5.7,29.96,NW,323,4.0,5.0,79,0.00,,OVC021,0.00,0.00,VWS V14.01,2013-01-26 11:10:00,
2013-01-26 06:15:00,10.9,5.7,29.97,NW,314,2.0,5.0,79,0.00,,OVC021,0.00,0.00,VWS V14.01,2013-01-26 11:15:00,
2013-01-26 06:20:00,10.8,5.6,29.97,NW,318,1.0,4.0,79,0.00,,OVC021,0.00,0.00,VWS V14.01,2013-01-26 11:20:00,
2013-01-26 06:25:00,10.7,5.5,29.97,NW,321,5.0,6.0,79,0.00,,OVC021,0.00,0.00,VWS V14.01,2013-01-26 11:25:00,
2013-01-26 06:30:00,10.7,5.5,29.97,NW,324,2.0,7.0,79,0.00,,OVC021,0.00,0.00,VWS V14.01,2013-01-26 11:30:00,
2013-01-26 06:35:00,10.6,5.4,29.97,NNW,331,4.0,7.0,79,0.00,,OVC021,0.00,0.00,VWS V14.01,2013-01-26 11:35:00,
2013-01-26 06:40:00,10.6,5.4,29.98,NW,325,6.0,8.0,79,0.00,,OVC021,0.00,0.00,VWS V14.01,2013-01-26 11:40:00,
2013-01-26 06:45:00,10.6,5.4,29.98,NW,315,4.0,10.0,79,0.00,,OVC021,0.00,0.00,VWS V14.01,2013-01-26 11:45:00,
2013-01-26 06:50:00,10.6,5.1,29.98,NW,304,4.0,10.0,78,0.00,,OVC021,0.00,0.00,VWS V14.01,2013-01-26 11:50:00,
2013-01-26 06:55:00,10.5,4.7,29.98,NNW,332,5.0,10.0,77,0.00,,OVC021,0.00,0.00,VWS V14.01,2013-01-26 11:55:00,
2013-01-26 07:00:00,10.4,4.6,29.98,NNW,338,9.0,9.0,77,0.00,,OVC021,0.00,0.00,VWS V14.01,2013-01-26 12:00:00,
2013-01-26 07:05:00,10.4,4.6,29.98,NNW,327,2.0,9.0,77,0.00,,OVC021,0.00,0.00,VWS V14.01,2013-01-26 12:05:00,
2013-01-26 07:10:00,10.4,4.6,29.98,NNW,327,5.0,8.0,77,0.00,,OVC021,0.00,7.00,VWS V14.01,2013-01-26 12:10:00,
2013-01-26 07:15:00,10.3,4.5,29.98,NNW,342,2.0,8.0,77,0.00,,OVC021,0.00,11.00,VWS V14.01,2013-01-26 12:15:00,
2013-01-26 07:20:00,10.3,4.2,29.98,NW,306,5.0,8.0,76,0.00,,OVC021,0.00,12.00,VWS V14.01,2013-01-26 12:20:00,
2013-01-26 07:25:00,10.3,4.2,29.99,NW,311,2.0,8.0,76,0.00,,OVC021,0.00,18.00,VWS V14.01,2013-01-26 12:25:00,
2013-01-26 07:30:00,10.4,4.1,29.99,North,360,1.0,7.0,75,0.00,,OVC021,0.00,35.00,VWS V14.01,2013-01-26 12:30:00,
2013-01-26 07:35:00,10.6,4.2,29.99,WNW,301,5.0,6.0,75,0.00,,OVC021,0.00,46.00,VWS V14.01,2013-01-26 12:35:00,
2013-01-26 07:40:00,10.8,4.2,29.99,North,355,4.0,12.0,74,0.00,,OVC021,0.00,58.00,VWS V14.01,2013-01-26 12:40:00,
2013-01-26 07:45:00,10.9,4.0,29.99,NNW,327,5.0,9.0,73,0.00,,OVC021,0.00,70.00,VWS V14.01,2013-01-26 12:45:00,
2013-01-26 07:50:00,11.1,3.8,29.99,WNW,302,3.0,7.0,72,0.00,,OVC021,0.00,81.00,VWS V14.01,2013-01-26 12:50:00,
2013-01-26 07:55:00,11.2,4.0,29.99,NW,320,5.0,8.0,72,0.00,,OVC021,0.00,91.00,VWS V14.01,2013-01-26 12:55:00,
2013-01-26 08:00:00,11.3,3.4,29.99,WNW,302,9.0,11.0,70,0.00,,OVC021,0.00,104.00,VWS V14.01,2013-01-26 13:00:00,
2013-01-26 08:05:00,11.4,3.5,29.99,NW,310,7.0,10.0,70,0.00,,OVC021,0.00,120.00,VWS V14.01,2013-01-26 13:05:00,
2013-01-26 08:10:00,11.6,3.4,29.99,WNW,288,6.0,10.0,69,0.00,,OVC021,0.00,132.00,VWS V14.01,2013-01-26 13:10:00,
2013-01-26 08:15:00,11.8,3.3,29.99,NW,321,6.0,11.0,68,0.00,,OVC021,0.00,148.00,VWS V14.01,2013-01-26 13:15:00,
2013-01-26 08:20:00,11.8,3.3,29.99,NW,311,9.0,11.0,68,0.00,,OVC021,0.00,165.00,VWS V14.01,2013-01-26 13:20:00,
2013-01-26 08:25:00,12.0,3.2,30.00,NW,321,8.0,11.0,67,0.00,,OVC021,0.00,181.00,VWS V14.01,2013-01-26 13:25:00,
2013-01-26 08:30:00,12.1,2.9,30.00,NNW,331,6.0,12.0,66,0.00,,OVC021,0.00,197.00,VWS V14.01,2013-01-26 13:30:00,
2013-01-26 08:35:00,12.4,3.2,30.00,WNW,300,9.0,12.0,66,0.00,,OVC021,0.00,213.00,VWS V14.01,2013-01-26 13:35:00,
2013-01-26 08:40:00,12.5,3.0,30.00,NNW,342,3.0,11.0,65,0.00,,OVC021,0.00,227.00,VWS V14.01,2013-01-26 13:40:00,
2013-01-26 08:45:00,12.7,2.8,30.00,NNW,328,9.0,11.0,64,0.00,,OVC021,0.00,239.00,VWS V14.01,2013-01-26 13:45:00,
2013-01-26 08:50:00,12.9,3.4,30.00,NW,311,4.0,15.0,65,0.00,,OVC021,0.00,251.00,VWS V14.01,2013-01-26 13:50:00,
2013-01-26 08:55:00,12.9,3.0,30.00,NW,315,7.0,15.0,64,0.00,,OVC021,0.00,264.00,VWS V14.01,2013-01-26 13:55:00,
2013-01-26 09:00:00,13.1,2.9,30.00,NNW,338,6.0,10.0,63,0.00,,OVC021,0.00,276.00,VWS V14.01,2013-01-26 14:00:00,
2013-01-26 09:05:00,13.4,2.8,30.01,NNW,327,7.0,12.0,62,0.00,,OVC021,0.00,290.00,VWS V14.01,2013-01-26 14:05:00,
2013-01-26 09:10:00,13.2,2.3,30.01,NNW,345,4.0,13.0,61,0.00,,OVC021,0.00,302.00,VWS V14.01,2013-01-26 14:10:00,
2013-01-26 09:15:00,13.4,2.8,30.00,NNW,341,9.0,11.0,62,0.00,,OVC021,0.00,315.00,VWS V14.01,2013-01-26 14:15:00,
2013-01-26 09:20:00,13.5,2.6,30.01,North,355,7.0,14.0,61,0.00,,OVC021,0.00,323.00,VWS V14.01,2013-01-26 14:20:00,
2013-01-26 09:25:00,13.6,2.7,30.01,NW,323,10.0,12.0,61,0.00,,OVC021,0.00,336.00,VWS V14.01,2013-01-26 14:25:00,
2013-01-26 09:30:00,13.9,3.0,30.01,NW,326,10.0,12.0,61,0.00,,OVC021,0.00,346.00,VWS V14.01,2013-01-26 14:30:00,
2013-01-26 09:35:00,14.3,3.0,30.01,North,355,6.0,11.0,60,0.00,,OVC021,0.00,353.00,VWS V14.01,2013-01-26 14:35:00,
2013-01-26 09:40:00,14.4,2.7,30.01,NW,306,7.0,11.0,59,0.00,,OVC021,0.00,366.00,VWS V14.01,2013-01-26 14:40:00,
2013-01-26 09:45:00,14.2,2.5,30.01,WNW,302,10.0,15.0,59,0.00,,OVC021,0.00,374.00,VWS V14.01,2013-01-26 14:45:00,
2013-01-26 09:50:00,14.3,2.6,30.01,NW,313,10.0,15.0,59,0.00,,OVC021,0.00,385.00,VWS V14.01,2013-01-26 14:50:00,
2013-01-26 09:55:00,14.5,2.4,30.01,NW,321,6.0,15.0,58,0.00,,OVC021,0.00,392.00,VWS V14.01,2013-01-26 14:55:00,
2013-01-26 10:00:00,15.0,2.9,30.00,NNW,327,6.0,10.0,58,0.00,,OVC021,0.00,401.00,VWS V14.01,2013-01-26 15:00:00,
2013-01-26 10:05:00,15.0,2.5,30.00,NNW,346,4.0,13.0,57,0.00,,OVC021,0.00,410.00,VWS V14.01,2013-01-26 15:05:00,
2013-01-26 10:10:00,15.3,2.8,30.00,NNW,334,8.0,14.0,57,0.00,,OVC021,0.00,417.00,VWS V14.01,2013-01-26 15:10:00,
2013-01-26 10:15:00,15.4,2.5,30.01,NNW,327,7.0,15.0,56,0.00,,OVC021,0.00,424.00,VWS V14.01,2013-01-26 15:15:00,
2013-01-26 10:20:00,15.6,2.7,30.01,NNW,329,8.0,13.0,56,0.00,,OVC021,0.00,431.00,VWS V14.01,2013-01-26 15:20:00,
2013-01-26 10:25:00,15.9,3.4,30.00,WNW,302,9.0,11.0,57,0.00,,OVC021,0.00,438.00,VWS V14.01,2013-01-26 15:25:00,
2013-01-26 10:30:00,16.0,2.7,30.00,NNE,13,8.0,14.0,55,0.00,,OVC021,0.00,443.00,VWS V14.01,2013-01-26 15:30:00,
2013-01-26 10:35:00,16.1,2.4,30.00,NNW,328,4.0,13.0,54,0.00,,OVC021,0.00,450.00,VWS V14.01,2013-01-26 15:35:00,
2013-01-26 10:40:00,16.3,3.0,29.99,NW,315,10.0,11.0,55,0.00,,OVC021,0.00,455.00,VWS V14.01,2013-01-26 15:40:00,
2013-01-26 10:45:00,16.6,2.9,29.99,NW,320,5.0,13.0,54,0.00,,OVC021,0.00,461.00,VWS V14.01,2013-01-26 15:45:00,
2013-01-26 10:50:00,16.7,2.5,29.99,NW,312,5.0,12.0,53,0.00,,OVC021,0.00,466.00,VWS V14.01,2013-01-26 15:50:00,
2013-01-26 10:55:00,16.9,2.7,30.00,North,360,7.0,12.0,53,0.00,,OVC021,0.00,469.00,VWS V14.01,2013-01-26 15:55:00,
2013-01-26 11:00:00,17.4,3.2,29.99,North,350,3.0,9.0,53,0.00,,OVC021,0.00,473.00,VWS V14.01,2013-01-26 16:00:00,
2013-01-26 11:05:00,17.9,3.7,30.00,NNW,348,2.0,11.0,53,0.00,,OVC021,0.00,475.00,VWS V14.01,2013-01-26 16:05:00,
2013-01-26 11:10:00,18.4,3.3,30.00,WNW,302,9.0,11.0,51,0.00,,OVC021,0.00,482.00,VWS V14.01,2013-01-26 16:10:00,
2013-01-26 11:15:00,18.0,2.9,29.99,NW,324,5.0,12.0,51,0.00,,OVC021,0.00,485.00,VWS V14.01,2013-01-26 16:15:00,
2013-01-26 11:20:00,18.0,2.5,29.99,NW,324,10.0,17.0,50,0.00,,OVC021,0.00,487.00,VWS V14.01,2013-01-26 16:20:00,
2013-01-26 11:25:00,18.1,3.0,29.99,WNW,298,6.0,11.0,51,0.00,,OVC021,0.00,490.00,VWS V14.01,2013-01-26 16:25:00,
2013-01-26 11:30:00,18.2,3.1,29.99,NW,321,5.0,11.0,51,0.00,,OVC021,0.00,490.00,VWS V14.01,2013-01-26 16:30:00,
2013-01-26 11:35:00,18.2,2.3,29.99,WNW,301,6.0,12.0,49,0.00,,OVC021,0.00,490.00,VWS V14.01,2013-01-26 16:35:00,
2013-01-26 11:40:00,18.0,2.1,29.98,NW,325,9.0,18.0,49,0.00,,OVC021,0.00,490.00,VWS V14.01,2013-01-26 16:40:00,
2013-01-26 11:45:00,18.4,2.4,29.98,NW,317,11.0,12.0,49,0.00,,OVC021,0.00,492.00,VWS V14.01,2013-01-26 16:45:00,
2013-01-26 11:50:00,18.8,2.4,29.98,North,360,5.0,16.0,48,0.00,,OVC021,0.00,490.00,VWS V14.01,2013-01-26 16:50:00,
2013-01-26 11:55:00,19.1,2.2,29.98,North,5,6.0,14.0,47,0.00,,OVC021,0.00,489.00,VWS V14.01,2013-01-26 16:55:00,
2013-01-26 12:00:00,19.0,1.6,29.98,NW,315,6.0,15.0,46,0.00,,OVC021,0.00,490.00,VWS V14.01,2013-01-26 17:00:00,
2013-01-26 12:05:00,19.3,1.9,29.97,NW,321,9.0,12.0,46,0.00,,OVC021,0.00,489.00,VWS V14.01,2013-01-26 17:05:00,
2013-01-26 12:10:00,19.7,2.3,29.97,West,277,10.0,11.0,46,0.00,,OVC021,0.00,489.00,VWS V14.01,2013-01-26 17:10:00,
2013-01-26 12:15:00,19.9,1.5,29.97,NW,326,10.0,14.0,44,0.00,,OVC021,0.00,490.00,VWS V14.01,2013-01-26 17:15:00,
2013-01-26 12:20:00,20.4,2.0,29.97,NNW,341,4.0,14.0,44,0.00,,OVC021,0.00,487.00,VWS V14.01,2013-01-26 17:20:00,
2013-01-26 12:25:00,20.3,1.4,29.97,NNE,17,9.0,13.0,43,0.00,,OVC021,0.00,482.00,VWS V14.01,2013-01-26 17:25:00,
2013-01-26 12:30:00,20.6,1.2,29.97,NNE,15,7.0,14.0,42,0.00,,OVC021,0.00,476.00,VWS V14.01,2013-01-26 17:30:00,
2013-01-26 12:35:00,20.7,0.7,29.97,NNE,13,9.0,14.0,41,0.00,,OVC021,0.00,471.00,VWS V14.01,2013-01-26 17:35:00,
2013-01-26 12:40:00,20.4,-0.6,29.97,NNW,346,10.0,14.0,39,0.00,,OVC021,0.00,459.00,VWS V14.01,2013-01-26 17:40:00,
2013-01-26 12:45:00,20.7,-0.3,29.97,NNW,336,5.0,14.0,39,0.00,,OVC021,0.00,353.00,VWS V14.01,2013-01-26 17:45:00,
2013-01-26 12:50:00,20.9,-0.7,29.97,NNW,327,7.0,13.0,38,0.00,,OVC021,0.00,197.00,VWS V14.01,2013-01-26 17:50:00,
2013-01-26 12:55:00,20.8,-1.4,29.96,NNW,336,8.0,12.0,37,0.00,,OVC021,0.00,72.00,VWS V14.01,2013-01-26 17:55:00,
2013-01-26 13:00:00,21.1,-1.7,29.96,NNW,327,5.0,11.0,36,0.00,,OVC021,0.00,51.00,VWS V14.01,2013-01-26 18:00:00,
2013-01-26 13:05:00,21.3,-2.7,29.96,North,350,6.0,14.0,34,0.00,,OVC021,0.00,49.00,VWS V14.01,2013-01-26 18:05:00,
2013-01-26 13:10:00,21.1,-4.8,29.97,NNW,340,10.0,19.0,31,0.00,,OVC021,0.00,49.00,VWS V14.01,2013-01-26 18:10:00,
2013-01-26 13:15:00,21.2,-4.7,29.96,NW,315,9.0,15.0,31,0.00,,OVC021,0.00,49.00,VWS V14.01,2013-01-26 18:15:00,
2013-01-26 13:20:00,21.2,-4.7,29.96,NW,317,8.0,15.0,31,0.00,,OVC021,0.00,53.00,VWS V14.01,2013-01-26 18:20:00,
2013-01-26 13:25:00,21.7,-4.3,29.96,NNW,345,8.0,13.0,31,0.00,,OVC021,0.00,56.00,VWS V14.01,2013-01-26 18:25:00,
2013-01-26 13:30:00,21.7,-4.9,29.96,NNW,342,3.0,10.0,30,0.00,,OVC021,0.00,58.00,VWS V14.01,2013-01-26 18:30:00,
2013-01-26 13:35:00,21.9,-5.5,29.96,NW,309,8.0,14.0,29,0.00,,OVC021,0.00,54.00,VWS V14.01,2013-01-26 18:35:00,
2013-01-26 13:40:00,21.6,-5.0,29.96,West,278,15.0,18.0,30,0.00,,OVC021,0.00,54.00,VWS V14.01,2013-01-26 18:40:00,
2013-01-26 13:45:00,22.1,-3.9,29.96,West,276,9.0,16.0,31,0.00,,OVC021,0.00,56.00,VWS V14.01,2013-01-26 18:45:00,
2013-01-26 13:50:00,21.7,-5.7,29.96,NNW,348,5.0,15.0,29,0.00,,OVC021,0.00,58.00,VWS V14.01,2013-01-26 18:50:00,
2013-01-26 13:55:00,21.8,-5.6,29.97,North,5,8.0,15.0,29,0.00,,OVC021,0.00,60.00,VWS V14.01,2013-01-26 18:55:00,
2013-01-26 14:00:00,21.7,-6.4,29.96,NNW,342,9.0,15.0,28,0.00,,OVC021,0.00,60.00,VWS V14.01,2013-01-26 19:00:00,
2013-01-26 14:05:00,22.0,-6.9,29.97,NNW,328,10.0,13.0,27,0.00,,OVC021,0.00,62.00,VWS V14.01,2013-01-26 19:05:00,
2013-01-26 14:10:00,22.1,-6.0,29.97,NNW,340,8.0,14.0,28,0.00,,OVC021,0.00,65.00,VWS V14.01,2013-01-26 19:10:00,
2013-01-26 14:15:00,21.9,-6.2,29.97,NW,314,8.0,16.0,28,0.00,,OVC021,0.00,67.00,VWS V14.01,2013-01-26 19:15:00,
2013-01-26 14:20:00,21.7,-6.4,29.97,NNE,12,9.0,14.0,28,0.00,,OVC021,0.00,62.00,VWS V14.01,2013-01-26 19:20:00,
2013-01-26 14:25:00,21.8,-5.6,29.98,WNW,301,9.0,15.0,29,0.00,,OVC021,0.00,69.00,VWS V14.01,2013-01-26 19:25:00,
2013-01-26 14:30:00,21.9,-5.5,29.98,North,355,6.0,12.0,29,0.00,,OVC021,0.00,65.00,VWS V14.01,2013-01-26 19:30:00,
2013-01-26 14:35:00,22.2,-5.2,29.98,NNW,333,11.0,14.0,29,0.00,,OVC021,0.00,62.00,VWS V14.01,2013-01-26 19:35:00,
2013-01-26 14:40:00,22.2,-5.2,29.98,WNW,294,8.0,12.0,29,0.00,,OVC021,0.00,74.00,VWS V14.01,2013-01-26 19:40:00,
2013-01-26 14:45:00,22.0,-4.7,29.97,NW,306,7.0,15.0,30,0.00,,OVC021,0.00,105.00,VWS V14.01,2013-01-26 19:45:00,
2013-01-26 14:50:00,22.1,-4.6,29.97,NW,319,4.0,14.0,30,0.00,,OVC021,0.00,155.00,VWS V14.01,2013-01-26 19:50:00,
2013-01-26 14:55:00,22.2,-4.5,29.98,NNW,342,5.0,14.0,30,0.00,,OVC021,0.00,237.00,VWS V14.01,2013-01-26 19:55:00,
2013-01-26 15:00:00,22.4,-4.3,29.98,NNW,337,5.0,8.0,30,0.00,,OVC021,0.00,241.00,VWS V14.01,2013-01-26 20:00:00,
2013-01-26 15:05:00,22.4,-4.3,29.99,NNW,327,10.0,11.0,30,0.00,,OVC021,0.00,225.00,VWS V14.01,2013-01-26 20:05:00,
2013-01-26 15:10:00,22.5,-3.6,29.99,WNW,298,5.0,10.0,31,0.00,,OVC021,0.00,211.00,VWS V14.01,2013-01-26 20:10:00,
2013-01-26 15:15:00,22.5,-3.6,29.99,West,272,10.0,19.0,31,0.00,,OVC021,0.00,179.00,VWS V14.01,2013-01-26 20:15:00,
2013-01-26 15:20:00,22.3,-3.7,30.00,WNW,300,8.0,15.0,31,0.00,,OVC021,0.00,153.00,VWS V14.01,2013-01-26 20:20:00,
2013-01-26 15:25:00,22.0,-3.3,30.00,WNW,299,11.0,16.0,32,0.00,,OVC021,0.00,125.00,VWS V14.01,2013-01-26 20:25:00,
2013-01-26 15:30:00,22.0,-3.3,30.00,NNW,327,8.0,15.0,32,0.00,,OVC021,0.00,116.00,VWS V14.01,2013-01-26 20:30:00,
2013-01-26 15:35:00,21.7,-4.3,30.00,NW,313,8.0,17.0,31,0.00,,OVC021,0.00,116.00,VWS V14.01,2013-01-26 20:35:00,
2013-01-26 15:40:00,21.2,-4.7,30.01,NW,306,9.0,20.0,31,0.00,,OVC021,0.00,120.00,VWS V14.01,2013-01-26 20:40:00,
2013-01-26 15:45:00,21.2,-4.7,30.01,NW,321,10.0,16.0,31,0.00,,OVC021,0.00,113.00,VWS V14.01,2013-01-26 20:45:00,
2013-01-26 15:50:00,21.2,-4.7,30.00,NNW,331,8.0,16.0,31,0.00,,OVC021,0.00,98.00,VWS V14.01,2013-01-26 20:50:00,
2013-01-26 15:55:00,20.9,-5.7,30.01,NW,321,13.0,23.0,30,0.00,,OVC021,0.00,86.00,VWS V14.01,2013-01-26 20:55:00,
2013-01-26 16:00:00,20.8,-6.4,30.01,NW,324,16.0,22.0,29,0.00,,OVC021,0.00,72.00,VWS V14.01,2013-01-26 21:00:00,
2013-01-26 16:05:00,20.7,-6.5,30.01,NW,319,8.0,17.0,29,0.00,,OVC021,0.00,60.00,VWS V14.01,2013-01-26 21:05:00,
2013-01-26 16:10:00,20.6,-6.6,30.02,NW,321,6.0,15.0,29,0.00,,OVC021,0.00,51.00,VWS V14.01,2013-01-26 21:10:00,
2013-01-26 16:15:00,20.4,-6.8,30.02,North,360,9.0,15.0,29,0.00,,OVC021,0.00,44.00,VWS V14.01,2013-01-26 21:15:00,
2013-01-26 16:20:00,20.3,-6.9,30.02,NNW,340,9.0,16.0,29,0.00,,OVC021,0.00,35.00,VWS V14.01,2013-01-26 21:20:00,
2013-01-26 16:25:00,20.2,-7.0,30.02,NW,321,12.0,14.0,29,0.00,,OVC021,0.00,25.00,VWS V14.01,2013-01-26 21:25:00,
2013-01-26 16:30:00,20.0,-7.8,30.03,NW,325,6.0,16.0,28,0.00,,OVC021,0.00,18.00,VWS V14.01,2013-01-26 21:30:00,
2013-01-26 16:35:00,19.8,-8.0,30.03,NW,319,7.0,17.0,28,0.00,,OVC021,0.00,14.00,VWS V14.01,2013-01-26 21:35:00,
2013-01-26 16:40:00,19.7,-7.4,30.03,NW,306,6.0,15.0,29,0.00,,OVC021,0.00,14.00,VWS V14.01,2013-01-26 21:40:00,
2013-01-26 16:45:00,19.7,-7.4,30.03,NW,307,5.0,17.0,29,0.00,,OVC021,0.00,11.00,VWS V14.01,2013-01-26 21:45:00,
2013-01-26 16:50:00,19.5,-7.6,30.04,NW,317,6.0,10.0,29,0.00,,OVC021,0.00,9.00,VWS V14.01,2013-01-26 21:50:00,
2013-01-26 16:55:00,19.4,-7.7,30.04,NW,309,9.0,14.0,29,0.00,,OVC021,0.00,0.00,VWS V14.01,2013-01-26 21:55:00,
2013-01-26 17:00:00,19.3,-7.8,30.04,North,355,6.0,14.0,29,0.00,,OVC021,0.00,0.00,VWS V14.01,2013-01-26 22:00:00,
2013-01-26 17:05:00,19.3,-7.1,30.04,NW,304,7.0,13.0,30,0.00,,OVC021,0.00,0.00,VWS V14.01,2013-01-26 22:05:00,
2013-01-26 17:10:00,19.3,-7.1,30.04,NW,325,6.0,15.0,30,0.00,,OVC021,0.00,0.00,VWS V14.01,2013-01-26 22:10:00,
2013-01-26 17:15:00,19.3,-7.1,30.05,NNW,348,4.0,16.0,30,0.00,,OVC021,0.00,0.00,VWS V14.01,2013-01-26 22:15:00,
2013-01-26 17:20:00,19.3,-7.1,30.04,NW,316,2.0,9.0,30,0.00,,OVC021,0.00,0.00,VWS V14.01,2013-01-26 22:20:00,
2013-01-26 17:25:00,19.2,-7.1,30.05,North,355,2.0,9.0,30,0.00,,OVC021,0.00,0.00,VWS V14.01,2013-01-26 22:25:00,
2013-01-26 17:30:00,19.1,-7.2,30.05,NW,315,12.0,12.0,30,0.00,,OVC021,0.00,0.00,VWS V14.01,2013-01-26 22:30:00,
2013-01-26 17:35:00,19.1,-7.9,30.05,NW,324,6.0,12.0,29,0.00,,OVC021,0.00,0.00,VWS V14.01,2013-01-26 22:35:00,
2013-01-26 17:40:00,19.0,-7.3,30.05,NW,317,5.0,9.0,30,0.00,,OVC021,0.00,0.00,VWS V14.01,2013-01-26 22:40:00,
2013-01-26 17:45:00,19.0,-7.3,30.05,NW,322,6.0,10.0,30,0.00,,OVC021,0.00,0.00,VWS V14.01,2013-01-26 22:45:00,
2013-01-26 17:50:00,18.9,-7.4,30.06,NW,325,4.0,9.0,30,0.00,,OVC021,0.00,0.00,VWS V14.01,2013-01-26 22:50:00,
2013-01-26 17:55:00,18.8,-6.8,30.06,NNW,338,0.0,10.0,31,0.00,,OVC021,0.00,0.00,VWS V14.01,2013-01-26 22:55:00,
2013-01-26 18:00:00,18.8,-5.5,30.06,NW,313,8.0,15.0,33,0.00,,OVC021,0.00,0.00,VWS V14.01,2013-01-26 23:00:00,
2013-01-26 18:05:00,18.7,-5.0,30.07,WNW,296,5.0,12.0,34,0.00,,OVC021,0.00,0.00,VWS V14.01,2013-01-26 23:05:00,
2013-01-26 18:10:00,18.6,-5.1,30.07,NNW,332,10.0,14.0,34,0.00,,OVC021,0.00,0.00,VWS V14.01,2013-01-26 23:10:00,
2013-01-26 18:15:00,18.5,-5.2,30.07,NW,315,3.0,12.0,34,0.00,,OVC021,0.00,0.00,VWS V14.01,2013-01-26 23:15:00,
2013-01-26 18:20:00,18.5,-5.2,30.07,NW,314,7.0,13.0,34,0.00,,OVC021,0.00,0.00,VWS V14.01,2013-01-26 23:20:00,
2013-01-26 18:25:00,18.4,-5.3,30.07,NW,306,9.0,14.0,34,0.00,,OVC021,0.00,0.00,VWS V14.01,2013-01-26 23:25:00,
2013-01-26 18:30:00,18.4,-5.3,30.08,NNW,347,8.0,14.0,34,0.00,,OVC021,0.00,0.00,VWS V14.01,2013-01-26 23:30:00,
2013-01-26 18:35:00,18.2,-6.1,30.08,NW,323,9.0,21.0,33,0.00,,OVC021,0.00,0.00,VWS V14.01,2013-01-26 23:35:00,
2013-01-26 18:40:00,18.1,-6.2,30.08,NW,319,13.0,18.0,33,0.00,,OVC021,0.00,0.00,VWS V14.01,2013-01-26 23:40:00,
2013-01-26 18:45:00,17.9,-6.3,30.08,NNW,327,6.0,17.0,33,0.00,,OVC021,0.00,0.00,VWS V14.01,2013-01-26 23:45:00,
2013-01-26 18:50:00,17.7,-7.1,30.09,WNW,302,6.0,19.0,32,0.00,,OVC021,0.00,0.00,VWS V14.01,2013-01-26 23:50:00,
2013-01-26 18:55:00,17.6,-7.2,30.09,NNW,329,16.0,17.0,32,0.00,,OVC021,0.00,0.00,VWS V14.01,2013-01-26 23:55:00,
2013-01-26 19:00:00,17.4,-8.1,30.09,NW,313,11.0,19.0,31,0.00,,OVC021,0.00,0.00,VWS V14.01,2013-01-27 00:00:00,
2013-01-26 19:05:00,17.3,-8.1,30.09,NW,304,7.0,17.0,31,0.00,,OVC021,0.00,0.00,VWS V14.01,2013-01-27 00:05:00,
2013-01-26 19:10:00,17.1,-8.3,30.09,NW,317,7.0,18.0,31,0.00,,OVC021,0.00,0.00,VWS V14.01,2013-01-27 00:10:00,
2013-01-26 19:15:00,16.9,-8.5,30.09,NNW,337,10.0,19.0,31,0.00,,OVC021,0.00,0.00,VWS V14.01,2013-01-27 00:15:00,
2013-01-26 19:20:00,16.8,-8.6,30.10,NW,322,13.0,15.0,31,0.00,,OVC021,0.00,0.00,VWS V14.01,2013-01-27 00:20:00,
2013-01-26 19:25:00,16.7,-8.7,30.10,NW,319,7.0,15.0,31,0.00,,OVC021,0.00,0.00,VWS V14.01,2013-01-27 00:25:00,
2013-01-26 19:30:00,16.6,-8.8,30.10,West,273,11.0,18.0,31,0.00,,OVC021,0.00,0.00,VWS V14.01,2013-01-27 00:30:00,
2013-01-26 19:35:00,16.5,-8.9,30.10,NW,306,5.0,20.0,31,0.00,,OVC021,0.00,0.00,VWS V14.01,2013-01-27 00:35:00,
2013-01-26 19:40:00,16.4,-8.3,30.10,North,355,12.0,21.0,32,0.00,,OVC021,0.00,0.00,VWS V14.01,2013-01-27 00:40:00,
2013-01-26 19:45:00,16.3,-8.4,30.10,North,355,15.0,16.0,32,0.00,,OVC021,0.00,0.00,VWS V14.01,2013-01-27 00:45:00,
2013-01-26 19:50:00,16.2,-7.8,30.11,NW,312,10.0,15.0,33,0.00,,OVC021,0.00,0.00,VWS V14.01,2013-01-27 00:50:00,
2013-01-26 19:55:00,16.1,-7.3,30.11,NW,313,13.0,23.0,34,0.00,,OVC021,0.00,0.00,VWS V14.01,2013-01-27 00:55:00,
2013-01-26 20:00:00,16.1,-7.3,30.11,North,360,6.0,14.0,34,0.00,,OVC021,0.00,0.00,VWS V14.01,2013-01-27 01:00:00,
2013-01-26 20:05:00,15.9,-6.9,30.11,NW,304,4.0,14.0,35,0.00,,OVC021,0.00,0.00,VWS V14.01,2013-01-27 01:05:00,
2013-01-26 20:10:00,15.7,-7.1,30.11,NNW,331,6.0,14.0,35,0.00,,OVC021,0.00,0.00,VWS V14.01,2013-01-27 01:10:00,
2013-01-26 20:15:00,15.6,-6.6,30.11,NW,307,4.0,17.0,36,0.00,,OVC021,0.00,0.00,VWS V14.01,2013-01-27 01:15:00,
2013-01-26 20:20:00,15.6,-6.6,30.11,NNW,330,6.0,18.0,36,0.00,,OVC021,0.00,0.00,VWS V14.01,2013-01-27 01:20:00,
2013-01-26 20:25:00,15.5,-6.1,30.12,NW,315,13.0,18.0,37,0.00,,OVC021,0.00,0.00,VWS V14.01,2013-01-27 01:25:00,
2013-01-26 20:30:00,15.5,-5.6,30.12,NW,319,6.0,15.0,38,0.00,,OVC021,0.00,0.00,VWS V14.01,2013-01-27 01:30:00,
2013-01-26 20:35:00,15.4,-5.7,30.12,NNW,333,8.0,17.0,38,0.00,,OVC021,0.00,0.00,VWS V14.01,2013-01-27 01:35:00,
2013-01-26 20:40:00,15.4,-5.1,30.12,NW,310,12.0,17.0,39,0.00,,OVC021,0.00,0.00,VWS V14.01,2013-01-27 01:40:00,
2013-01-26 20:45:00,15.3,-5.2,30.12,North,349,8.0,17.0,39,0.00,,OVC021,0.00,0.00,VWS V14.01,2013-01-27 01:45:00,
2013-01-26 20:50:00,15.2,-4.8,30.12,NW,311,8.0,13.0,40,0.00,,OVC021,0.00,0.00,VWS V14.01,2013-01-27 01:50:00,
2013-01-26 20:55:00,15.2,-4.8,30.12,WNW,294,8.0,17.0,40,0.00,,OVC021,0.00,0.00,VWS V14.01,2013-01-27 01:55:00,
2013-01-26 21:00:00,15.0,-4.4,30.12,NNW,332,4.0,12.0,41,0.00,,OVC021,0.00,0.00,VWS V14.01,2013-01-27 02:00:00,
2013-01-26 21:05:00,14.9,-4.5,30.13,NW,323,6.0,12.0,41,0.00,,OVC021,0.00,0.00,VWS V14.01,2013-01-27 02:05:00,
2013-01-26 21:10:00,14.8,-4.6,30.13,NW,313,9.0,14.0,41,0.00,,OVC021,0.00,0.00,VWS V14.01,2013-01-27 02:10:00,
2013-01-26 21:15:00,14.8,-4.6,30.13,NW,304,6.0,12.0,41,0.00,,OVC021,0.00,0.00,VWS V14.01,2013-01-27 02:15:00,
2013-01-26 21:20:00,14.8,-4.6,30.13,NW,320,6.0,14.0,41,0.00,,OVC021,0.00,0.00,VWS V14.01,2013-01-27 02:20:00,
2013-01-26 21:25:00,14.7,-4.2,30.14,West,281,4.0,16.0,42,0.00,,OVC021,0.00,0.00,VWS V14.01,2013-01-27 02:25:00,
2013-01-26 21:30:00,14.7,-3.7,30.14,NW,309,8.0,12.0,43,0.00,,OVC021,0.00,0.00,VWS V14.01,2013-01-27 02:30:00,
2013-01-26 21:35:00,14.6,-3.3,30.14,NW,323,6.0,11.0,44,0.00,,OVC021,0.00,0.00,VWS V14.01,2013-01-27 02:35:00,
2013-01-26 21:40:00,14.5,-3.4,30.14,WNW,299,4.0,13.0,44,0.00,,OVC021,0.00,0.00,VWS V14.01,2013-01-27 02:40:00,
2013-01-26 21:45:00,14.3,-3.6,30.14,WNW,293,4.0,11.0,44,0.00,,OVC021,0.00,0.00,VWS V14.01,2013-01-27 02:45:00,
2013-01-26 21:50:00,14.2,-3.2,30.14,WNW,288,4.0,8.0,45,0.00,,OVC021,0.00,0.00,VWS V14.01,2013-01-27 02:50:00,
2013-01-26 21:55:00,13.9,-3.5,30.14,WNW,303,4.0,8.0,45,0.00,,OVC021,0.00,0.00,VWS V14.01,2013-01-27 02:55:00,
2013-01-26 22:00:00,13.8,-3.6,30.14,West,279,6.0,14.0,45,0.00,,OVC021,0.00,0.00,VWS V14.01,2013-01-27 03:00:00,
2013-01-26 22:05:00,13.9,-3.5,30.14,NW,315,5.0,13.0,45,0.00,,OVC021,0.00,0.00,VWS V14.01,2013-01-27 03:05:00,
2013-01-26 22:10:00,13.9,-3.0,30.15,NW,312,7.0,12.0,46,0.00,,OVC021,0.00,0.00,VWS V14.01,2013-01-27 03:10:00,
2013-01-26 22:15:00,13.9,-3.0,30.15,NW,318,5.0,11.0,46,0.00,,OVC021,0.00,0.00,VWS V14.01,2013-01-27 03:15:00,
2013-01-26 22:20:00,13.9,-3.0,30.15,NW,324,9.0,11.0,46,0.00,,OVC021,0.00,0.00,VWS V14.01,2013-01-27 03:20:00,
2013-01-26 22:25:00,13.8,-3.1,30.15,NW,306,3.0,10.0,46,0.00,,OVC021,0.00,0.00,VWS V14.01,2013-01-27 03:25:00,
2013-01-26 22:30:00,13.8,-2.7,30.16,WNW,302,9.0,12.0,47,0.00,,OVC021,0.00,0.00,VWS V14.01,2013-01-27 03:30:00,
2013-01-26 22:35:00,13.8,-2.7,30.16,NW,321,8.0,13.0,47,0.00,,OVC021,0.00,0.00,VWS V14.01,2013-01-27 03:35:00,
2013-01-26 22:40:00,13.8,-2.7,30.16,NW,314,8.0,13.0,47,0.00,,OVC021,0.00,0.00,VWS V14.01,2013-01-27 03:40:00,
2013-01-26 22:45:00,13.8,-2.2,30.16,NNW,344,8.0,11.0,48,0.00,,OVC021,0.00,0.00,VWS V14.01,2013-01-27 03:45:00,
2013-01-26 22:50:00,13.7,-2.8,30.16,WNW,292,6.0,13.0,47,0.00,,OVC021,0.00,0.00,VWS V14.01,2013-01-27 03:50:00,
2013-01-26 22:55:00,13.8,-2.2,30.16,WNW,296,7.0,10.0,48,0.00,,OVC021,0.00,0.00,VWS V14.01,2013-01-27 03:55:00,
2013-01-26 23:00:00,13.7,-2.3,30.16,West,272,7.0,12.0,48,0.00,,OVC021,0.00,0.00,VWS V14.01,2013-01-27 04:00:00,
2013-01-26 23:05:00,13.6,-2.0,30.17,NW,315,9.0,12.0,49,0.00,,OVC021,0.00,0.00,VWS V14.01,2013-01-27 04:05:00,
2013-01-26 23:10:00,13.6,-2.0,30.17,NW,323,9.0,12.0,49,0.00,,OVC021,0.00,0.00,VWS V14.01,2013-01-27 04:10:00,
2013-01-26 23:15:00,13.4,-2.2,30.16,WNW,303,9.0,11.0,49,0.00,,OVC021,0.00,0.00,VWS V14.01,2013-01-27 04:15:00,
2013-01-26 23:20:00,13.4,-2.2,30.17,West,269,7.0,10.0,49,0.00,,OVC021,0.00,0.00,VWS V14.01,2013-01-27 04:20:00,
2013-01-26 23:25:00,13.3,-1.9,30.17,NNW,328,7.0,11.0,50,0.00,,OVC021,0.00,0.00,VWS V14.01,2013-01-27 04:25:00,
2013-01-26 23:30:00,13.2,-2.0,30.17,WNW,297,6.0,13.0,50,0.00,,OVC021,0.00,0.00,VWS V14.01,2013-01-27 04:30:00,
2013-01-26 23:35:00,13.2,-1.5,30.17,West,273,4.0,12.0,51,0.00,,OVC021,0.00,0.00,VWS V14.01,2013-01-27 04:35:00,
2013-01-26 23:40:00,13.1,-1.6,30.17,NW,304,11.0,14.0,51,0.00,,OVC021,0.00,0.00,VWS V14.01,2013-01-27 04:40:00,
2013-01-26 23:45:00,13.2,-1.5,30.16,West,277,8.0,13.0,51,0.00,,OVC021,0.00,0.00,VWS V14.01,2013-01-27 04:45:00,
2013-01-26 23:50:00,13.1,-1.2,30.16,WNW,294,7.0,12.0,52,0.00,,OVC021,0.00,0.00,VWS V14.01,2013-01-27 04:50:00,
2013-01-26 23:55:00,13.0,-1.3,30.16,WNW,303,8.0,13.0,52,0.00,,OVC021,0.00,0.00,VWS V14.01,2013-01-27 04:55:00,